Temperature
23 23 23 22 22 21 21 21 20 20 20 19 19 19 19 19 18 18 18 18 18 18 18 18 18 18 18 18 18 18 18 17 17 17 17 17 17 17 17 17 17 17 17
23 23 23 22 22 21 21 21 20 20 20 20 19 19 19 19 18 18 18 18 18 18 18 18 18 18 18 18 18 17 17 17 17 17 17 17 17 17 17 17 17 17 17
23 22 22 22 22 21 21 20 20 20 20 19 19 19 18 18 18 18 18 18 18 18 18 18 18 18 18 18 18 18 17 17 17 17 17 17 18 18 18 18 17 17 17
23 22 22 22 22 21 21 20 20 20 19 19 19 19 19 19 19 19 18 18 18 18 18 18 18 18 18 18 18 18 17 18 18 17 17 18 18 18 18 18 18 18 17
23 22 22 22 22 21 21 20 20 19 19 19 19 18 19 19 19 18 18 18 18 18 18 18 18 18 18 18 18 17 17 18 18 18 18 18 18 18 18 18 18 18 18
23 22 22 22 21 21 20 20 19 19 19 19 18 18 18 18 18 18 18 18 18 18 18 18 18 18 18 18 18 17 17 17 18 18 18 18 18 18 18 18 18 18 18
22 22 22 21 21 21 20 20 19 19 19 18 18 18 18 18 18 18 18 18 18 18 18 18 18 18 18 18 18 17 17 17 17 17 18 18 18 18 18 18 18 18 18
22 22 22 21 21 20 20 19 19 19 18 18 18 18 18 18 18 18 18 18 18 18 18 18 18 18 18 17 17 17 17 17 17 17 17 17 17 18 18 18 18 18 17
22 22 21 21 21 20 20 20 19 19 18 18 18 18 18 17 17 17 18 18 18 18 17 17 17 17 17 17 17 17 17 17 17 17 17 17 17 17 17 17 17 17 17
21 21 21 21 20 20 20 19 19 18 18 18 18 17 17 17 17 17 17 17 17 17 17 17 17 17 17 17 17 17 17 17 17 17 17 17 17 17 17 17 17 17 17
21 21 21 20 20 20 20 19 19 18 18 18 18 17 17 17 17 17 17 17 17 17 17 17 17 17 17 17 17 17 17 17 17 16 17 16 16 17 17 17 17 17 17
21 21 20 20 20 19 19 19 19 18 18 18 18 17 17 17 17 17 17 17 17 17 17 17 17 17 17 17 16 16 16 16 16 16 16 16 16 16 16 17 17 16 16
20 20 20 20 19 19 19 19 18 18 18 18 18 17 17 17 17 17 17 16 16 16 16 16 16 16 16 16 16 16 16 16 16 16 16 16 16 16 16 16 16 16 16
20 20 20 19 19 19 19 18 18 18 18 17 17 17 17 17 17 17 16 16 16 16 16 16 16 16 16 16 16 16 16 16 16 16 16 16 16 16 16 16 16 16 15
19 19 19 19 19 19 18 18 18 18 17 17 17 17 17 16 16 16 16 16 16 16 15 16 16 15 15 15 15 15 15 15 15 15 15 15 15 15 15 15 15 15 15
19 19 19 18 18 18 18 18 17 17 17 17 17 16 16 16 16 15 15 15 15 15 15 15 15 15 15 15 15 15 15 15 15 15 15 15 15 15 15 15 15 14 14
18 18 18 18 18 18 18 17 17 17 17 16 16 16 16 16 15 15 15 15 15 15 15 15 15 15 14 15 15 15 15 15 15 14 14 14 14 14 14 14 14 14 14
18 18 18 18 18 17 17 17 17 17 16 16 16 16 15 15 15 15 15 14 14 14 14 14 14 14 14 14 14 14 14 14 14 14 14 14 13 13 13 13 13 13 13
18 18 18 18 17 17 17 17 16 16 16 16 15 15 15 15 14 14 14 14 14 14 14 14 14 14 14 14 14 14 14 14 13 13 13 13 13 13 13 13 13 12 12
18 18 17 17 17 17 16 16 16 16 16 15 15 15 15 14 14 14 14 14 14 13 13 13 13 13 13 13 13 13 13 13 13 12 12 12 12 12 12 12 12 12 11
17 17 17 17 16 16 16 16 15 15 15 15 15 15 14 14 14 14 13 13 13 13 13 13 13 13 12 12 12 12 12 12 12 12 11 11 11 11 11 11 11 10 10
17 17 16 16 16 15 15 15 15 15 14 14 14 14 14 13 13 13 13 13 13 13 13 12 12 12 12 12 12 12 12 11 11 11 11 10 10 10 10 10 10 9 9
16 16 16 15 15 15 15 15 14 14 14 14 13 13 13 13 13 13 13 13 12 12 12 12 12 11 11 11 11 11 11 11 10 10 10 10 10 9 9 9 9 9 9
15 15 15 15 14 14 14 14 14 13 13 13 13 12 12 12 12 12 12 12 12 12 12 11 11 11 10 10 10 10 10 10 10 9 9 9 9 9 8 8 8 8 8
15 15 15 14 14 14 13 13 13 13 13 12 12 12 12 12 12 11 11 11 11 11 11 11 11 10 10 10 10 10 9 9 9 9 8 8 8 8 8 8 7 7 7
14 14 14 14 13 13 13 13 12 12 12 12 12 11 11 11 11 11 11 10 10 10 10 10 10 10 9 9 9 9 9 8 8 8 8 7 7 7 7 7 7 7 6
Wind_Speed
8 9 11 12 11 11 10 11 11 10 8 5 5 5 5 5 5 6 10 13 12 12 9 5 5 5 5 5 5 4 3 2 2 3 2 2 1 3 5 6 7 10 14
8 8 9 11 11 12 11 10 11 11 9 6 5 4 4 4 5 5 7 12 12 11 10 7 6 5 5 6 5 4 3 2 3 4 3 1 3 3 4 4 6 7 10
13 12 11 10 10 11 11 10 10 10 9 7 5 4 3 2 2 4 5 7 11 12 9 8 6 6 6 6 6 6 6 4 2 3 4 4 4 3 3 3 4 5 5
12 12 11 10 11 10 10 9 9 9 8 8 7 7 6 5 5 5 5 6 9 10 10 9 8 6 6 6 6 6 4 5 3 2 2 3 4 3 2 3 2 4 6
12 12 11 10 9 9 9 9 9 9 8 8 8 7 6 5 4 4 5 6 6 8 9 10 8 7 6 7 7 6 5 5 5 4 2 2 1 2 3 2 3 3 4
10 9 8 8 7 7 8 8 9 8 8 8 8 7 7 6 5 5 6 6 5 6 8 8 8 7 6 7 7 6 7 5 5 4 4 4 3 3 3 3 3 3 4
10 9 8 8 8 8 8 7 8 7 7 8 7 7 7 7 7 7 7 7 5 5 8 8 7 6 6 7 7 7 7 6 5 5 4 4 4 4 4 3 3 2 3
9 9 9 8 8 9 8 8 7 6 7 7 7 6 6 5 5 6 6 7 6 7 7 8 8 7 7 7 7 6 6 6 6 6 5 3 3 3 4 4 4 1 2
10 9 8 8 7 7 7 8 7 6 5 6 6 6 6 5 5 5 5 5 5 6 7 7 8 7 7 7 7 6 6 6 6 5 5 4 3 3 3 3 4 4 2
8 8 8 7 6 6 6 6 6 6 4 4 5 5 4 5 4 4 4 4 5 5 6 7 7 7 7 6 6 5 5 5 5 4 4 4 3 2 2 2 3 4 4
8 8 6 6 6 6 6 6 5 4 3 3 3 2 2 2 2 2 3 3 3 4 5 6 6 6 6 6 6 5 6 6 5 5 5 5 4 3 2 2 2 2 3
7 8 8 7 6 5 5 6 5 5 4 3 3 3 2 2 2 2 2 2 2 3 3 4 5 5 5 6 6 6 5 5 5 5 4 4 3 2 2 2 2 2 3
8 8 8 7 5 5 5 5 5 5 4 4 4 3 3 3 3 2 1 2 2 1 1 3 4 4 5 5 5 5 4 3 3 4 4 3 3 2 1 2 2 1 1
10 8 7 6 5 5 5 6 5 5 5 4 4 4 3 3 3 2 2 2 2 2 2 1 2 3 4 4 5 4 4 3 2 2 3 3 3 3 2 2 2 2 2
10 9 8 6 6 6 6 6 5 5 5 5 4 3 3 3 3 3 3 3 3 3 3 3 2 2 2 3 5 5 5 4 4 4 3 3 4 3 2 2 2 3 2
11 9 8 7 6 6 6 6 6 5 6 6 5 4 4 4 4 3 3 4 4 4 5 4 4 4 3 5 7 6 5 5 5 5 4 4 5 6 6 4 4 4 3
11 10 9 8 6 5 6 6 6 6 7 6 6 5 5 5 4 4 4 4 4 5 6 5 6 6 6 8 9 8 6 6 5 5 5 4 5 5 5 7 8 7 6
10 9 8 7 6 6 6 7 7 7 7 6 6 5 5 5 5 5 5 4 5 5 5 5 6 6 7 8 9 10 8 7 7 6 5 5 5 5 6 7 8 7 7
10 9 8 8 8 8 8 8 7 7 7 6 5 5 5 5 5 5 5 4 6 6 5 6 6 6 6 7 9 10 7 8 8 7 7 6 6 7 8 8 8 7 6
9 8 8 8 8 7 8 9 7 7 6 5 5 4 5 5 5 5 5 5 6 6 7 7 7 6 6 7 8 9 6 7 7 7 7 10 9 9 8 7 7 7 5
10 10 10 8 7 7 8 9 8 6 5 5 5 5 5 5 5 6 5 6 7 8 8 9 8 8 8 8 9 8 6 6 7 6 5 6 11 11 11 9 7 7 6
11 10 10 8 6 7 9 9 7 6 6 7 7 7 6 6 6 6 6 6 7 8 8 8 8 7 8 9 9 11 10 9 8 6 5 6 12 12 12 9 10 11 8
9 9 10 9 7 6 8 9 7 6 8 8 8 7 8 7 6 6 6 6 6 6 6 6 7 6 6 8 12 12 12 11 7 6 9 10 12 11 9 12 12 8 6
9 9 10 10 8 6 7 7 7 7 9 9 7 7 8 9 9 7 6 6 5 5 6 6 6 5 5 5 5 5 7 9 8 7 9 11 12 10 10 9 8 7 6
8 8 9 9 8 8 7 7 7 8 9 9 8 8 8 9 9 9 8 7 6 4 6 5 5 6 5 3 5 6 5 5 5 6 6 6 6 7 7 6 6 6 6
8 9 9 9 9 8 8 6 6 8 9 8 7 6 7 7 8 9 10 15 12 14 13 10 8 6 7 9 12 12 12 11 11 9 7 6 6 6 5 5 5 5 5
Wind_Direction
175 171 167 165 160 162 164 167 167 169 165 162 160 159 170 172 177 183 183 181 180 175 169 172 170 164 165 170 162 150 150 148 125 92 45 349 299 220 205 204 200 204 205
160 168 163 167 168 168 174 173 173 173 173 173 167 162 158 173 179 184 183 183 181 178 179 172 176 173 169 171 166 151 148 157 146 135 113 9 332 306 235 211 204 205 203
166 174 175 176 171 173 176 179 178 175 173 165 147 134 118 122 161 185 191 192 185 185 183 180 176 178 174 178 180 165 156 168 187 159 148 158 218 268 297 250 220 204 201
170 178 177 179 181 180 174 171 172 171 170 164 164 165 172 183 194 189 188 190 188 186 188 186 183 182 182 183 189 177 166 158 177 196 195 181 167 167 254 303 263 226 213
172 176 179 178 175 169 171 169 170 172 171 171 174 175 184 190 179 175 180 193 195 192 190 186 185 185 184 188 191 180 176 170 173 181 185 184 177 160 160 237 277 276 243
165 165 167 155 148 151 162 167 169 175 175 176 179 179 183 186 181 187 192 198 200 201 198 188 185 185 184 187 193 190 185 185 181 181 177 174 177 187 174 202 235 250 263
159 157 152 152 153 155 163 168 169 176 178 177 182 184 186 190 196 197 199 198 199 204 204 197 191 191 190 190 188 189 194 189 183 192 195 195 201 180 172 174 208 241 274
156 158 158 155 161 164 166 166 168 177 179 182 190 191 191 197 205 204 199 201 206 209 203 197 196 195 193 197 190 195 199 192 194 201 196 202 212 188 179 175 170 204 290
160 158 153 151 154 158 165 166 167 172 178 185 193 194 196 202 208 206 201 203 205 208 202 197 201 201 198 197 190 196 200 193 199 202 198 205 217 198 197 186 173 170 212
153 147 149 151 150 152 152 150 159 170 173 176 185 189 193 200 199 194 198 200 203 203 192 195 196 198 197 193 188 190 194 192 205 200 191 203 216 200 195 192 182 178 184
139 138 139 142 145 141 138 145 155 149 150 156 156 153 164 175 172 181 201 206 204 191 190 190 188 192 191 186 182 187 190 197 210 210 197 208 205 198 201 177 158 176 175
137 132 130 124 125 121 130 140 145 140 141 141 140 148 150 142 148 182 196 185 187 190 194 187 185 190 187 181 179 188 188 195 210 213 196 209 205 194 198 177 175 187 188
125 117 117 121 124 129 133 136 134 135 136 133 133 124 118 120 119 124 135 142 151 161 169 168 179 186 186 180 173 171 167 178 199 192 184 195 172 185 195 182 186 191 162
127 122 120 123 128 131 128 127 128 131 129 122 119 116 114 115 106 91 92 103 118 120 120 132 166 179 179 174 166 156 150 151 157 150 157 162 165 183 192 192 187 157 130
133 132 125 122 124 118 115 120 121 122 123 119 116 114 106 100 90 80 86 86 90 99 94 88 87 112 151 173 164 159 151 143 124 103 104 116 118 124 152 178 180 158 143
137 133 125 120 122 128 127 120 118 118 117 115 108 102 99 94 87 86 93 89 86 86 89 85 82 83 96 109 122 128 131 127 119 107 91 85 80 81 79 89 114 133 151
135 135 134 136 138 133 124 124 120 108 103 104 103 98 97 93 87 91 100 99 93 88 86 84 83 83 80 92 102 103 109 105 106 107 100 90 79 76 81 77 75 71 75
135 134 134 131 124 113 112 111 106 103 101 98 96 97 98 90 81 78 91 102 97 94 92 88 89 90 81 87 95 96 92 89 86 89 93 92 75 70 87 91 80 68 58
133 129 125 120 114 113 116 108 99 98 96 93 89 87 93 94 87 83 83 98 101 95 90 89 90 89 78 84 95 97 94 88 77 70 68 78 77 68 81 92 93 82 64
118 119 116 110 112 115 115 108 104 99 96 95 93 87 87 92 93 96 92 89 97 97 92 81 75 81 78 80 96 101 103 98 88 71 60 63 73 72 75 90 97 91 75
115 112 110 107 113 117 112 108 105 101 101 96 93 84 80 87 94 92 90 92 93 89 84 80 69 65 64 67 79 94 101 108 99 84 65 57 68 70 70 77 85 93 90
111 112 110 107 105 110 112 108 104 102 98 93 87 82 76 84 89 91 87 88 94 95 90 85 74 59 52 58 68 77 82 91 97 91 77 68 70 68 68 74 80 83 80
113 112 113 108 98 100 113 114 111 109 104 95 87 83 77 70 70 79 84 86 92 99 97 92 86 70 57 55 62 71 79 82 88 88 84 77 70 66 63 62 66 70 72
118 117 115 114 107 100 102 110 113 110 105 100 91 86 85 75 63 61 64 76 83 97 102 100 95 83 64 52 54 68 77 78 82 81 73 69 65 64 55 52 53 55 65
117 115 117 117 115 112 105 104 109 109 105 103 99 93 89 90 79 68 56 63 53 93 110 109 110 105 86 52 71 92 91 94 97 91 72 65 63 61 54 50 46 46 49
117 115 114 115 113 110 107 103 105 112 112 109 107 103 101 98 95 92 76 57 64 67 74 85 95 85 91 87 78 78 82 86 91 86 78 72 71 72 67 61 48 42 40
Height
1511 1515 1518 1520 1522 1524 1526 1527 1530 1533 1535 1537 1538 1540 1542 1544 1546 1548 1550 1552 1555 1557 1559 1561 1563 1565 1567 1568 1570 1572 1573 1575 1576 1577 1578 1579 1580 1580 1581 1581 1581 1582 1583
1511 1513 1516 1518 1519 1521 1524 1525 1527 1530 1532 1534 1537 1538 1540 1542 1544 1546 1548 1550 1553 1555 1557 1559 1561 1563 1565 1567 1568 1570 1571 1573 1574 1576 1577 1578 1579 1578 1579 1579 1580 1580 1581
1506 1510 1513 1515 1517 1519 1522 1524 1526 1527 1530 1532 1534 1537 1539 1541 1542 1544 1546 1548 1550 1553 1555 1557 1559 1561 1563 1564 1566 1568 1569 1570 1572 1574 1575 1576 1575 1576 1577 1577 1578 1578 1579
1504 1508 1510 1512 1514 1516 1519 1521 1523 1526 1527 1529 1531 1533 1535 1536 1538 1541 1543 1545 1548 1550 1552 1554 1556 1558 1560 1562 1564 1565 1567 1568 1570 1571 1573 1574 1574 1574 1574 1575 1575 1576 1576
1502 1505 1507 1509 1511 1514 1516 1519 1521 1523 1525 1527 1528 1530 1533 1535 1537 1539 1541 1543 1545 1547 1549 1551 1553 1555 1557 1559 1561 1563 1564 1566 1567 1569 1570 1571 1571 1572 1572 1572 1573 1574 1574
1500 1503 1506 1508 1509 1511 1513 1517 1519 1521 1523 1524 1526 1528 1530 1532 1534 1536 1538 1540 1542 1544 1546 1548 1550 1552 1554 1556 1558 1560 1562 1563 1565 1566 1567 1568 1569 1569 1570 1570 1570 1570 1571
1499 1502 1504 1506 1508 1510 1512 1515 1517 1519 1520 1522 1523 1525 1528 1530 1531 1533 1535 1537 1538 1540 1542 1545 1546 1548 1550 1553 1555 1557 1559 1560 1562 1563 1565 1566 1566 1567 1568 1568 1568 1568 1569
1498 1501 1504 1505 1508 1510 1511 1513 1515 1517 1518 1520 1521 1523 1525 1527 1529 1531 1532 1533 1535 1537 1539 1541 1543 1545 1547 1549 1551 1553 1555 1557 1559 1560 1561 1562 1563 1564 1565 1565 1566 1566 1566
1497 1500 1503 1506 1508 1510 1511 1512 1514 1515 1517 1519 1519 1520 1523 1524 1526 1527 1529 1530 1532 1534 1536 1537 1539 1541 1543 1545 1548 1550 1552 1553 1555 1556 1558 1559 1560 1561 1561 1562 1563 1564 1563
1498 1501 1503 1506 1508 1510 1511 1512 1514 1515 1516 1517 1518 1519 1521 1522 1523 1524 1525 1526 1528 1530 1531 1533 1535 1537 1539 1541 1543 1545 1547 1549 1551 1552 1553 1554 1556 1557 1558 1558 1559 1560 1560
1500 1501 1504 1507 1508 1510 1511 1513 1514 1515 1515 1516 1517 1518 1519 1520 1521 1521 1522 1523 1524 1525 1527 1529 1531 1532 1535 1537 1538 1540 1543 1545 1546 1548 1549 1550 1552 1553 1554 1555 1555 1556 1557
1500 1502 1504 1507 1510 1511 1512 1513 1514 1515 1515 1516 1516 1516 1517 1517 1518 1518 1519 1520 1520 1522 1523 1524 1526 1528 1530 1532 1534 1536 1538 1540 1542 1543 1545 1546 1548 1549 1550 1550 1551 1552 1552
1500 1502 1504 1507 1510 1512 1513 1514 1514 1515 1516 1515 1515 1515 1515 1516 1516 1516 1516 1517 1517 1518 1519 1521 1522 1524 1526 1528 1530 1532 1534 1536 1537 1539 1540 1542 1543 1544 1545 1546 1547 1547 1548
1501 1503 1505 1508 1510 1512 1513 1514 1515 1516 1516 1516 1515 1515 1515 1515 1515 1514 1514 1514 1515 1516 1516 1517 1518 1520 1522 1524 1526 1528 1531 1533 1534 1536 1537 1538 1539 1540 1541 1542 1543 1544 1544
1501 1504 1507 1509 1510 1512 1513 1514 1515 1515 1516 1516 1515 1515 1515 1515 1514 1513 1513 1513 1514 1514 1515 1516 1517 1517 1519 1521 1523 1525 1528 1530 1532 1533 1534 1536 1537 1537 1538 1538 1539 1540 1540
1501 1505 1508 1510 1511 1512 1513 1514 1514 1515 1516 1516 1515 1515 1515 1514 1514 1513 1513 1513 1513 1514 1515 1516 1516 1517 1518 1519 1521 1524 1526 1528 1529 1531 1532 1533 1534 1534 1535 1535 1536 1536 1537
1502 1504 1506 1510 1511 1513 1514 1514 1515 1515 1515 1516 1516 1516 1515 1514 1514 1513 1513 1513 1514 1514 1515 1516 1517 1517 1518 1520 1522 1524 1525 1526 1527 1529 1530 1531 1532 1532 1533 1533 1533 1534 1535
1501 1504 1506 1508 1510 1512 1514 1515 1515 1515 1516 1516 1516 1516 1516 1515 1514 1514 1513 1514 1515 1515 1516 1516 1517 1519 1520 1521 1522 1523 1525 1525 1527 1528 1529 1530 1531 1531 1531 1532 1532 1532 1533
1500 1503 1506 1508 1510 1511 1513 1514 1515 1515 1516 1516 1516 1516 1516 1515 1515 1514 1514 1515 1515 1516 1517 1517 1519 1520 1521 1522 1523 1524 1525 1526 1527 1528 1529 1529 1530 1530 1531 1531 1531 1531 1532
1500 1503 1506 1508 1509 1511 1513 1514 1515 1515 1516 1516 1516 1516 1516 1516 1516 1515 1516 1516 1516 1517 1518 1519 1520 1521 1522 1523 1524 1525 1526 1526 1527 1528 1529 1529 1530 1530 1530 1530 1531 1531 1532
1500 1503 1505 1507 1509 1511 1512 1513 1514 1515 1516 1516 1516 1516 1516 1516 1517 1517 1517 1517 1518 1518 1519 1520 1521 1522 1523 1524 1525 1526 1526 1527 1527 1528 1529 1530 1531 1531 1531 1531 1531 1532 1532
1500 1502 1505 1507 1509 1510 1512 1513 1513 1515 1516 1516 1516 1516 1517 1517 1518 1518 1518 1519 1519 1520 1521 1522 1523 1523 1525 1526 1526 1527 1527 1528 1528 1529 1530 1531 1531 1532 1532 1532 1533 1533 1533
1501 1503 1505 1507 1509 1511 1512 1512 1514 1515 1516 1516 1517 1517 1518 1518 1519 1519 1520 1520 1521 1522 1523 1523 1524 1525 1526 1527 1528 1528 1529 1529 1530 1531 1532 1532 1533 1533 1534 1534 1534 1534 1534
1502 1504 1506 1507 1509 1511 1512 1513 1514 1515 1516 1516 1517 1518 1518 1519 1520 1520 1521 1522 1522 1523 1524 1525 1525 1526 1527 1529 1529 1530 1530 1531 1532 1532 1533 1533 1534 1534 1535 1535 1535 1535 1535
1502 1504 1506 1507 1509 1511 1512 1514 1515 1516 1516 1517 1518 1519 1520 1521 1521 1522 1522 1523 1524 1525 1526 1526 1527 1528 1528 1530 1531 1531 1532 1533 1533 1534 1534 1534 1535 1535 1536 1536 1536 1536 1536
1502 1504 1506 1508 1509 1511 1513 1514 1516 1516 1517 1518 1519 1520 1521 1522 1523 1523 1524 1525 1526 1527 1528 1528 1529 1529 1530 1531 1532 1533 1534 1534 1535 1536 1536 1536 1536 1537 1538 1538 1538 1538 1537